This is the latest recevied weather packets stored in our database for station/object WE0DX-1. If no packets are shown the sender has not sent any weather packets the latest 10 day(s).
| Time | Temp. | Humidity | Pressure | Rain* | Wind** | Luminosity | Snow |
|---|---|---|---|---|---|---|---|
| 1777493110 | 15° C | 50% | 1018.9 hPa | 0 mm | - | 231 W/m² | - |
| 1777492807 | 15° C | 51% | 1019 hPa | 0 mm | - | 204 W/m² | - |
| 1777492199 | 15° C | 52% | 1018.9 hPa | 0 mm | - | 297 W/m² | - |
| 1777490986 | 15° C | 50% | 1019 hPa | 0 mm | - | 334 W/m² | - |
| 1777490682 | 15° C | 52% | 1019 hPa | 0 mm | - | 358 W/m² | - |
| 1777490378 | 15° C | 53% | 1019 hPa | 0 mm | - | 340 W/m² | - |
| 1777490076 | 15° C | 51% | 1019.1 hPa | 0 mm | - | 322 W/m² | - |
| 1777489774 | 14.44° C | 53% | 1019.3 hPa | 0 mm | - | 285 W/m² | - |
| 1777489471 | 14.44° C | 52% | 1019.2 hPa | 0 mm | - | 297 W/m² | - |
| 1777487957 | 14.44° C | 51% | 1019.2 hPa | 0 mm | - | 311 W/m² | - |
| 1777487654 | 15° C | 52% | 1019.4 hPa | 0 mm | - | 461 W/m² | - |
| 1777487351 | 15° C | 52% | 1019.3 hPa | 0 mm | - | 513 W/m² | - |
| 1777486744 | 14.44° C | 50% | 1019.5 hPa | 0 mm | - | 661 W/m² | - |
| 1777486443 | 14.44° C | 49% | 1019.6 hPa | 0 mm | - | 533 W/m² | - |
| 1777486140 | 14.44° C | 53% | 1019.6 hPa | 0 mm | - | 515 W/m² | - |
| 1777485836 | 15° C | 52% | 1020 hPa | 0 mm | - | 570 W/m² | - |
| 1777485532 | 14.44° C | 57% | 1020.1 hPa | 0 mm | - | 655 W/m² | - |
| 1777485229 | 14.44° C | 56% | 1019.9 hPa | 0 mm | - | 503 W/m² | - |
| 1777484319 | 13.89° C | 57% | 1020.1 hPa | 0 mm | - | 418 W/m² | - |
| 1777483711 | 13.89° C | 59% | 1020.1 hPa | 0 mm | - | 555 W/m² | - |
| 1777483407 | 13.89° C | 60% | 1020.3 hPa | 0 mm | - | 496 W/m² | - |
| 1777483102 | 13.89° C | 58% | 1020.2 hPa | 0 mm | - | 524 W/m² | - |
| 1777482800 | 13.89° C | 59% | 1020.2 hPa | 0 mm | - | 465 W/m² | - |
| 1777481890 | 13.89° C | 60% | 1020.6 hPa | 0 mm | - | 774 W/m² | - |
| 1777480677 | 13.89° C | 61% | 1020.4 hPa | 0 mm | - | 783 W/m² | - |
* Rain latest hour (hover to see other rain measurements)
** Current wind speed in m/s (hover to see current wind gust speed)